STARLINK-5244 (54199 NORAD) Tracking and Keplerian Element Data

This shows tracking and keplerian element data for the satellite.

Feedback or suggestion? Click here.




ElementValue
Catalog54199
NameSTARLINK-5244
Epoch Orbit130
Epoch Day324.91667824
Epoch Year2022
RAAN25.7346
Inclination53.2186
Eccentricity0.000321
Argument of Perigee11.1164
Mean Anonmoly293.9682
Mean Motion15.73215572
Decay Rate-0.00013567
L11 54199U 22141AU 22324.91667824 -.00013567 00000+0 -92290-4 0 9993
L22 54199 53.2186 25.7346 0003210 11.1164 293.9682 15.73215572 1303



Live tracking and technical data element details for STARLINK-5244 (NORAD 54199). STARLINK-5244 can be tracked NOW for your location showing map with azimuth and elevation plus other details from your city location.







IsCatalogInMostPopularTable: catalog: 54199, numindb: 4
Update: records affected: 1



GetName: 54199 STARLINK-5244

Hit Count: updated at: Mon, 28 Nov 2022 22:22:27 GMT